Location: Bennemühlen
(52.5740°N, 9.7135°E)
Time: 20:45:18
(UTC+00:00)

Tiros 1 despin weight - Pass Details

Date: 23 February 2026
Orbit: 556 x 593 km, 48.2° (Epoch: 8 March)

Event Time Altitude Azimuth Distance (km) Brightness Sun altitude
Rises 12:20:00 0° 213° (SSW) 2,749 ? 27.0°
Reaches altitude 10° 12:22:43 10° 196° (SSW) 1,849 ? 26.9°
Maximum altitude 12:25:46 20° 150° (SSE) 1,339 ? 26.8°
Drops below altitude 10° 12:28:49 10° 103° (ESE) 1,844 ? 26.6°
Sets 12:31:32 0° 86° (E) 2,738 ? 26.5°
